Погода в Далёком

Россия / Республика Крым     45°39′37″N   33°04′48″E
темп.,
°C
ветер,
м/с
пор.,
м/с
влажн.,
%
обл.,
%
осадки,
мм/ч
давл.,
гПа
погр.,
м
18 мая, вт
вт1800:00+15ю689073 0.0 1007271
03:00+15ю6108831 0.0 1006314
06:00+15ю9138768 0.0 1006343
09:00+16ююз91282100 0.2 1006281
12:00+16ююз81388100 1.1 1006441
15:00+17ююз101380100 1.1 1006371
18:00+16юз91379100 0.0 1006535
21:00+15ююз1015820 0.0 1005585
19 мая, ср
ср1900:00+16ююз813785 0.2 1005393
03:00+15зюз911786 0.8 1005917
06:00+14зюз10127978 0.2 1005849
09:00+14зюз121387100 0.9 1006965
12:00+14зюз141684100 1.6 10081175
15:00+15з1215815 1.6 1009898
18:00+15зюз912825 0.0 1011609
21:00+16юз8118268 0.0 1012380
20 мая, чт
чт2000:00+15юз71081100 0.0 1012250
03:00+15ююз6881100 0.0 1011214
06:00+15ю5881100 0.0 1011255
09:00+16зюз4577100 0.0 1012158
12:00+16ссз33765 0.0 101185
15:00+17св66715 0.0 1010130
18:00+18св10137342 0.0 1008142
21:00+18в5679100 0.0 100857
21 мая, пт
пт2100:00+17зюз81179100 0.0 1009310
03:00+15зюз5992100 0.0 1009400
06:00+16юз4586100 0.0 1009374
09:00+16юз2379100 0.0 1010216
12:00+15з4484100 0.0 1010173
15:00+16зсз4483100 0.0 1011236
18:00+16сз4480100 0.0 1010152
21:00+16ссз5682100 0.0 1009102
22 мая, сб
сб2200:00+17ссз4582100 0.0 100964
03:00+17ссз7108369 0.0 1008143
06:00+17с813905 0.0 1008250
09:00+17ссв712895 0.0 1008254
12:00+18с448749 0.0 100838
15:00+19ссз338314 0.0 100814
18:00+20ссв338131 0.0 100814
21:00+21ссв61078100 0.0 100972